Sauk Centre, MN

7:52 PM CST on December 13, 2019 (GMT -0600)
Sauk Centre

Weather History for KD39 - August, 2019

Change the Weather History Date:

Monday, August 5, 2019

  Actual Average (WUND) Record (WUND)
Temperature  
Mean Temperature 72 °F -  
Max Temperature 82 °F - - (-1)
Min Temperature 62 °F - - (-1)
Cooling Degree Days 7    
Growing Degree Days 22 (Base 50)    
Moisture  
Dew Point 64 °F    
Average Humidity 78    
Maximum Humidity 99    
Minimum Humidity 51    
Precipitation  
Precipitation 0.00 in - - ()
Sea Level Pressure  
Sea Level Pressure 29.89 in    
Wind  
Wind Speed 4 mph (NW)    
Max Wind Speed 17 mph    
Max Gust Speed 28 mph    
Visibility 8 miles    
Events Thunderstorm    
Averages and records for this station are not official NWS values.
T = Trace of Precipitation, MM = Missing Value Source: NWS Daily Summary

Daily Weather History Graph

Daily Weather History Graph

Search for Another Location

Airport or City:

Astronomy

Aug. 05, 2019 Rise Set
Actual Time 6:07 AM CDT 8:43 PM CDT
Civil Twilight 5:33 AM CDT 9:16 PM CDT
Nautical Twilight 4:51 AM CDT 9:59 PM CDT
Astronomical Twilight 4:02 AM CDT 10:47 PM CDT
Moon 11:40 AM CDT (8/5) 11:38 PM CDT (8/5)
Length of Visible Light 15h 43m
Length of Day
14h 35m
Waxing Crescent, 28% of the Moon is Illuminated
Aug 5
Waxing Crescent
Aug 7
First Quarter
Aug 15
Full
Aug 23
Last Quarter
Aug 30
New

Hourly Weather History & Observations

Time (CDT) Temp. Heat Index Dew Point Humidity Pressure Visibility Wind Dir Wind Speed Gust Speed Precip Events Conditions
12:16 AM 67.6 °F - 66.2 °F 95% 29.97 in 10.0 mi Calm Calm - N/A   Clear
12:35 AM 67.3 °F - 66.2 °F 96% 29.96 in 10.0 mi Calm Calm - N/A   Clear
12:36 AM 67.3 °F - 66.2 °F 96% 29.96 in 10.0 mi Calm Calm - N/A   Clear
12:55 AM 66.6 °F - 65.3 °F 96% 29.96 in 10.0 mi Calm Calm - N/A   Clear
12:56 AM 66.6 °F - 65.5 °F 96% 29.96 in 10.0 mi Calm Calm - N/A   Clear
1:15 AM 67.1 °F - 66.2 °F 97% 29.96 in 10.0 mi Calm Calm - N/A   Clear
1:38 AM 66.4 °F - 65.1 °F 96% 29.95 in 10.0 mi Calm Calm - N/A   Clear
1:57 AM 66.0 °F - 65.1 °F 97% 29.95 in 10.0 mi Calm Calm - N/A   Clear
2:15 AM 65.7 °F - 65.1 °F 98% 29.94 in 7.0 mi Calm Calm - N/A   Clear
2:16 AM 65.7 °F - 65.1 °F 98% 29.94 in 7.0 mi Calm Calm - N/A   Clear
2:35 AM 65.5 °F - 64.9 °F 98% 29.93 in 7.0 mi ESE 4.6 mph - N/A   Clear
2:36 AM 65.5 °F - 64.8 °F 98% 29.93 in 7.0 mi ESE 4.6 mph - N/A   Clear
2:55 AM 65.8 °F - 65.3 °F 98% 29.93 in 7.0 mi Calm Calm - N/A   Clear
2:59 AM 66.0 °F - 65.5 °F 98% 29.93 in 7.0 mi Calm Calm - N/A   Clear
3:19 AM 66.4 °F - 65.7 °F 98% 29.92 in 5.0 mi Calm Calm - N/A   Clear
3:36 AM 64.4 °F - 63.9 °F 98% 29.92 in 5.0 mi Calm Calm - N/A   Clear
3:56 AM 63.9 °F - 63.5 °F 99% 29.91 in 3.0 mi Calm Calm - N/A   Clear
4:15 AM 63.3 °F - 63.0 °F 99% 29.89 in 2.5 mi SSE 3.5 mph - N/A   Clear
4:16 AM 63.3 °F - 62.8 °F 98% 29.89 in 2.5 mi SSE 3.5 mph - N/A   Clear
4:35 AM 64.6 °F - 64.4 °F 99% 29.89 in 4.0 mi SE 3.5 mph - N/A   Clear
4:36 AM 64.8 °F - 64.6 °F 99% 29.89 in 4.0 mi SE 3.5 mph - N/A   Clear
4:55 AM 64.9 °F - 64.6 °F 99% 29.89 in 3.0 mi Calm Calm - N/A   Clear
4:59 AM 64.9 °F - 64.6 °F 99% 29.89 in 3.0 mi Calm Calm - N/A   Clear
5:18 AM 64.4 °F - 64.0 °F 99% 29.89 in 7.0 mi Calm Calm - N/A   Clear
5:36 AM 64.4 °F - 63.9 °F 98% 29.89 in 5.0 mi Calm Calm - N/A   Clear
5:55 AM 63.7 °F - 63.1 °F 98% 29.89 in 1.0 mi Calm Calm - N/A   Mostly Cloudy
5:57 AM 63.3 °F - 62.8 °F 98% 29.90 in 1.0 mi Calm Calm - N/A   Mostly Cloudy
6:16 AM 63.5 °F - 63.1 °F 99% 29.90 in 2.5 mi Calm Calm - N/A   Mostly Cloudy
6:35 AM 63.9 °F - 63.5 °F 99% 29.89 in 3.0 mi Calm Calm - N/A   Scattered Clouds
6:57 AM 64.9 °F - 64.6 °F 99% 29.89 in 3.0 mi Calm Calm - N/A   Scattered Clouds
7:15 AM 66.4 °F - 66.2 °F 99% 29.89 in 5.0 mi Calm Calm - N/A   Scattered Clouds
7:16 AM 66.4 °F - 66.2 °F 99% 29.89 in 5.0 mi Calm Calm - N/A   Scattered Clouds
7:35 AM 65.7 °F - 65.3 °F 99% 29.92 in 4.0 mi Calm Calm - N/A   Mostly Cloudy
7:39 AM 65.8 °F - 65.3 °F 98% 29.93 in 4.0 mi NW 3.5 mph - N/A   Overcast
7:57 AM 68.0 °F - 67.1 °F 97% 29.94 in 5.0 mi North 4.6 mph - N/A Thunderstorm Overcast
8:16 AM 68.4 °F - 67.5 °F 97% 29.92 in 5.0 mi Calm Calm - N/A Thunderstorm Mostly Cloudy
8:36 AM 68.4 °F - 65.3 °F 90% 29.91 in 10.0 mi North 5.8 mph 19.6 mph N/A Thunderstorm Mostly Cloudy
8:55 AM 70.7 °F - 65.3 °F 83% 29.90 in 10.0 mi NNE 5.8 mph - N/A   Scattered Clouds
8:57 AM 70.9 °F - 64.9 °F 81% 29.90 in 10.0 mi North 5.8 mph - N/A   Scattered Clouds
9:16 AM 72.7 °F - 64.8 °F 76% 29.89 in 10.0 mi NW 3.5 mph - N/A   Clear
9:35 AM 73.2 °F - 64.8 °F 75% 29.89 in 10.0 mi West 4.6 mph - N/A   Clear
9:39 AM 73.4 °F - 64.8 °F 74% 29.89 in 10.0 mi West 4.6 mph - N/A   Clear
9:59 AM 74.3 °F - 64.8 °F 72% 29.89 in 10.0 mi WSW 4.6 mph - N/A   Clear
10:17 AM 75.0 °F - 67.1 °F 76% 29.88 in 10.0 mi Calm Calm - N/A   Clear
10:35 AM 76.5 °F - 66.2 °F 70% 29.89 in 10.0 mi WNW 4.6 mph - N/A   Clear
10:55 AM 76.8 °F - 66.4 °F 70% 29.89 in 10.0 mi WNW 6.9 mph - N/A   Clear
10:56 AM 76.6 °F - 66.2 °F 70% 29.89 in 10.0 mi WNW 5.8 mph - N/A   Clear
11:15 AM 77.7 °F - 65.1 °F 65% 29.89 in 10.0 mi West 5.8 mph - N/A   Clear
11:19 AM 78.4 °F - 64.4 °F 62% 29.89 in 10.0 mi West 3.5 mph - N/A   Clear
11:37 AM 78.8 °F - 65.1 °F 63% 29.88 in 10.0 mi WSW 3.5 mph - N/A   Clear
11:57 AM 79.9 °F - 66.6 °F 64% 29.87 in 10.0 mi West 8.1 mph - N/A   Clear
12:15 PM 80.4 °F 82.7 °F 66.9 °F 63% 29.86 in 10.0 mi WNW 6.9 mph - N/A   Scattered Clouds
12:35 PM 79.9 °F - 66.7 °F 64% 29.85 in 10.0 mi West 3.5 mph - N/A   Scattered Clouds
12:36 PM 80.1 °F 82.3 °F 66.7 °F 64% 29.85 in 10.0 mi WNW 4.6 mph - N/A   Scattered Clouds
12:55 PM 81.3 °F 83.5 °F 66.4 °F 60% 29.85 in 10.0 mi WNW 8.1 mph - N/A   Clear
12:56 PM 81.3 °F 83.5 °F 66.4 °F 60% 29.85 in 10.0 mi WNW 8.1 mph - N/A   Clear
1:19 PM 81.3 °F 83.8 °F 67.1 °F 62% 29.85 in 10.0 mi NW 11.5 mph - N/A   Clear
1:36 PM 82.6 °F 85.3 °F 67.3 °F 60% 29.85 in 10.0 mi WNW 10.4 mph 16.1 mph N/A   Clear
1:56 PM 82.6 °F 85.1 °F 66.7 °F 59% 29.86 in 10.0 mi NNW 12.7 mph - N/A   Clear
2:15 PM 81.5 °F 83.4 °F 65.3 °F 58% 29.86 in 10.0 mi NNW 13.8 mph 18.4 mph N/A   Scattered Clouds
2:35 PM 81.3 °F 82.7 °F 63.7 °F 55% 29.85 in 10.0 mi NW 12.7 mph 20.7 mph N/A   Clear
2:59 PM 81.3 °F 82.2 °F 61.3 °F 51% 29.86 in 10.0 mi NW 15.0 mph 20.7 mph N/A   Clear
3:16 PM 80.6 °F 82.4 °F 65.3 °F 59% 29.86 in 10.0 mi NNW 15.0 mph 23.0 mph N/A   Scattered Clouds
3:35 PM 79.3 °F - 64.4 °F 60% 29.86 in 10.0 mi NW 15.0 mph 21.9 mph N/A   Scattered Clouds
3:36 PM 79.3 °F - 64.4 °F 60% 29.86 in 10.0 mi NW 15.0 mph 21.9 mph N/A   Scattered Clouds
3:55 PM 79.3 °F - 63.9 °F 59% 29.86 in 10.0 mi NW 16.1 mph 20.7 mph N/A   Scattered Clouds
3:56 PM 79.2 °F - 63.5 °F 59% 29.86 in 10.0 mi NW 17.3 mph 20.7 mph N/A   Scattered Clouds
4:15 PM 79.2 °F - 61.5 °F 55% 29.86 in 10.0 mi NW 15.0 mph - N/A   Scattered Clouds
4:19 PM 79.3 °F - 61.3 °F 54% 29.86 in 10.0 mi NNW 12.7 mph - N/A   Clear
4:37 PM 79.0 °F - 62.1 °F 56% 29.85 in 10.0 mi NNW 11.5 mph 21.9 mph N/A   Clear
4:56 PM 79.5 °F - 61.9 °F 55% 29.85 in 10.0 mi NNW 17.3 mph 27.6 mph N/A   Scattered Clouds
5:15 PM 78.8 °F - 59.9 °F 52% 29.85 in 10.0 mi NNW 17.3 mph 20.7 mph N/A   Clear
5:16 PM 78.8 °F - 59.9 °F 52% 29.85 in 10.0 mi NNW 15.0 mph 20.7 mph N/A   Clear
5:35 PM 79.3 °F - 60.8 °F 53% 29.85 in 10.0 mi NW 15.0 mph 20.7 mph N/A   Clear
5:40 PM 79.2 °F - 61.0 °F 54% 29.85 in 10.0 mi NW 17.3 mph 20.7 mph N/A   Clear
5:57 PM 78.4 °F - 61.2 °F 55% 29.85 in 10.0 mi NW 16.1 mph 19.6 mph N/A   Clear
6:16 PM 78.3 °F - 60.8 °F 55% 29.84 in 10.0 mi NNW 16.1 mph - N/A   Clear
6:36 PM 78.1 °F - 60.8 °F 55% 29.84 in 10.0 mi NNW 13.8 mph 18.4 mph N/A   Clear
6:55 PM 77.5 °F - 61.3 °F 57% 29.84 in 10.0 mi NW 10.4 mph 16.1 mph N/A   Clear
6:56 PM 77.5 °F - 61.3 °F 57% 29.84 in 10.0 mi NW 11.5 mph 19.6 mph N/A   Clear
7:15 PM 77.0 °F - 60.8 °F 57% 29.84 in 10.0 mi NW 13.8 mph 23.0 mph N/A   Clear
7:19 PM 77.0 °F - 60.8 °F 57% 29.84 in 10.0 mi NW 17.3 mph 23.0 mph N/A   Clear
7:37 PM 76.3 °F - 61.0 °F 59% 29.84 in 10.0 mi NW 13.8 mph 19.6 mph N/A   Clear
7:56 PM 75.4 °F - 61.2 °F 61% 29.84 in 10.0 mi NW 13.8 mph - N/A   Clear
8:15 PM 74.7 °F - 59.9 °F 60% 29.85 in 10.0 mi NW 11.5 mph - N/A   Clear
8:16 PM 74.7 °F - 59.9 °F 60% 29.85 in 10.0 mi NW 10.4 mph - N/A   Clear
8:35 PM 73.0 °F - 59.9 °F 63% 29.86 in 10.0 mi NW 6.9 mph - N/A   Clear
8:36 PM 73.0 °F - 59.9 °F 63% 29.86 in 10.0 mi NW 6.9 mph - N/A   Clear
8:58 PM 71.6 °F - 60.3 °F 67% 29.87 in 10.0 mi NW 5.8 mph - N/A   Clear
9:16 PM 69.6 °F - 60.4 °F 73% 29.88 in 10.0 mi Calm Calm - N/A   Clear
9:35 PM 68.0 °F - 60.8 °F 78% 29.89 in 10.0 mi West 3.5 mph - N/A   Clear
9:55 PM 65.7 °F - 60.8 °F 84% 29.90 in 10.0 mi West 3.5 mph - N/A   Clear
9:56 PM 65.5 °F - 60.8 °F 85% 29.90 in 10.0 mi West 3.5 mph - N/A   Clear
10:15 PM 64.4 °F - 60.1 °F 86% 29.90 in 10.0 mi Calm Calm - N/A   Clear
10:16 PM 64.2 °F - 60.1 °F 86% 29.90 in 10.0 mi Calm Calm - N/A   Clear
10:38 PM 64.4 °F - 60.1 °F 86% 29.90 in 7.0 mi West 3.5 mph - N/A   Clear
10:56 PM 64.4 °F - 60.1 °F 86% 29.91 in 10.0 mi West 3.5 mph - N/A   Clear
11:16 PM 64.6 °F - 59.9 °F 85% 29.90 in 10.0 mi Calm Calm - N/A   Clear
11:35 PM 63.5 °F - 59.7 °F 87% 29.91 in 10.0 mi West 3.5 mph - N/A   Clear
11:55 PM 62.8 °F - 59.5 °F 89% 29.91 in 10.0 mi West 4.6 mph - N/A   Clear
11:59 PM 62.8 °F - 59.4 °F 89% 29.91 in 10.0 mi West 3.5 mph - N/A   Clear